Regional Weather Roundup
Issued by NWS

Home | Current Version | Previous Version | Text Only | Print | Product List | Glossary On
Versions: 1 2 3 4 5 6 7 8 9 10 11 12 13 14 15 16 17 18 19 20 21 22 23 24 25 26 27 28 29 30 31 32 33 34 35 36 37 38 39 40 41 42 43 44 45 46 47 48 49 50
693
ASUS44 KJAN 271710
RWRMS

MISSISSIPPI HOURLY WEATHER ROUNDUP
NATIONAL WEATHER SERVICE JACKSON MS
1200 PM CDT MON MAR 27 2017

NOTE: "FAIR: INDICATES FEW OR NO CLOUDS BELOW 12,000 FEET WITH NO
SIGNIFICANT WEATHER AND/OR OBSTRUCTIONS TO VISIBILITY.

MSZ001>002-007>008-010>013-018>021-025>028-034>036-271800-
NORTHWEST MISSISSIPPI

CITY           SKY/WX    TMP DP  RH WIND       PRES   REMARKS
CLEVELAND      CLOUDY    75  69  81 SW17G24   29.91F
GREENWOOD      CLOUDY    78  65  63 S22G30    29.93F
GREENVILLE     PTSUNNY   75  64  68 S22G31    29.91F
OLIVE BRANCH   PTSUNNY  N/A N/A N/A SW17G28   29.86
OXFORD         PTSUNNY   73  61  64 S16G28    29.91F
WINONA         PTSUNNY   74  64  71 S15G22    29.95F
$$

MSZ003>006-009-014>017-022>024-029>033-037>039-271800-
NORTHEAST MISSISSIPPI

CITY           SKY/WX    TMP DP  RH WIND       PRES   REMARKS
COLUMBUS AFB   NOT AVBL
CORINTH        CLOUDY    73  61  64 S16G23    29.92F
GOLDN TRIANGLE MOSUNNY   75  63  64 S15G22    29.94F
TUPELO         PTSUNNY   74  62  66 S13       29.94F
$$

MSZ040-058-271800-
CENTRAL MISSISSIPPI

CITY           SKY/WX    TMP DP  RH WIND       PRES   REMARKS
JACKSON INTL   MOSUNNY   81  64  56 S16       29.96F
JACKSON HAWKNS PTSUNNY   78  63  59 S14       29.97S
MERIDIAN KEY   PTSUNNY   80  65  59 S17       29.99F
MERIDIAN NAS   CLOUDY    79  61  53 SW13      30.00F
$$

MSZ059>079-271800-
SOUTH MISSISSIPPI

CITY           SKY/WX    TMP DP  RH WIND       PRES   REMARKS
BROOKHAVEN     PTSUNNY   81  64  57 S14       30.00S
COLUMBIA       PTSUNNY   79 -33   1 S10G16    30.02F
HATTIESBURG    MOSUNNY   80  62  54 S14       30.01F
MCCOMB         MOSUNNY   79  62  56 S17       29.99F
NATCHEZ        NOT AVBL
PINE BELT      MOSUNNY   81  61  50 S10G22    30.02F
$$

MSZ080>082-271800-
COASTAL MISSISSIPPI

CITY           SKY/WX    TMP DP  RH WIND       PRES   REMARKS
BAY ST LOUIS   PTSUNNY   79  64  61 S15G21    30.03F
BILOXI         PTSUNNY   76  70  81 S13       30.04S
PASCAGOULA     PTSUNNY   78  67  68 SE14      30.05S
GULFPORT       PTSUNNY   77  70  79 S15       30.04S
$$

LAZ007>009-015>016-023>026-271800-
NORTHEAST LOUISIANA

CITY           SKY/WX    TMP DP  RH WIND       PRES   REMARKS
BASTROP        CLOUDY    78  67  67 SW9G18    29.93S
TALLULAH/VBURG PTSUNNY   77  64  64 S13       29.95F
VIDALIA        PTSUNNY   77  66  70 S17       29.96S
$$




USA.gov is the U.S. government's official web portal to all federal, state and local government web resources and services.